www.pogodaiklimat.ru

Погода и климат >> Архив погоды >> Южная Африка >> Skukuza


ПОГОДА в Skukuza

  • Прогноз погоды в Skukuza
  • Монитор погоды в Skukuza
  • Климат города

АРХИВ ПОГОДЫ в Skukuza

Время (UTC), дата Ветер
(напр.,м/с)
 
Видим.   Явления Облачность Т
(С)
Тd
(С)
f
(%)
Тe
(С)
Тes
(С)
Комфортность P
(гПа)
Po
(гПа)
Тmin
(С)
Tmax
(С)
R
(мм)
R24
(мм)
S
(см)
12 11.10 ЮВ 2 н/о н/о +26.4 +5.0 25 +26 +26 жарко 857.0 982.2 +26.0 +26.9
15 11.10 В 2 н/о н/о +26.7 +5.3 25 +26 +26 жарко 856.3 981.3 +26.2 +27.9
18 11.10 ЮВ 2 н/о н/о +19.3 +8.1 48 +21 +21 комфорт 854.6 983.0 +18.7 +27.9
21 11.10 ЮЗ 1 н/о н/о +13.7 +10.5 81 +14 +14 853.6 984.6 +13.7 +27.9
00 12.10 штиль 0 н/о н/о +11.6 +9.5 87 +11 +11 852.3 984.2 +11.6 +27.9
03 12.10 штиль 0 н/о н/о +10.2 +8.4 89 +9 +9 851.1 983.5 +10.2 +27.9
06 12.10 СЗ 2 н/о н/о +19.1 +11.5 61 +21 +21 комфорт 856.3 985.0 +10.0
09 12.10 СВ 2 н/о н/о +29.3 +9.2 29 +29 +29 жарко 858.4 982.4 +28.2 +29.4
12 12.10 В 2 н/о н/о +33.7 +4.8 16 +31 +31 жарко 857.9 979.8 +28.2 +33.8
15 12.10 Ю 3 н/о н/о +31.1 +3.5 17 +29 +29 жарко 858.1 981.2 +31.1 +34.3
18 12.10 ЮВ 2 н/о н/о +23.0 +7.3 36 +24 +24 комфорт 858.2 985.1 +23.0 +34.3
21 12.10 Ю 3 н/о н/о +19.6 +13.1 66 +21 +21 комфорт 860.3 989.2 +19.6 +34.3
00 13.10 Ю 2 н/о н/о +17.9 +12.8 72 +18 +18 860.0 989.7 +17.7 +34.3
03 13.10 Ю 2 н/о н/о +17.2 +12.1 72 +18 +18 860.7 990.8 +17.1 +34.3
06 13.10 Ю 4 н/о н/о +19.3 +11.2 59 +20 +20 863.8 993.2 +17.1
09 13.10 Ю 4 н/о н/о +21.7 +11.2 51 +24 +24 комфорт 864.3 992.5 +17.1 +22.8
12 13.10 Ю 3 н/о н/о +21.4 +10.4 49 +23 +23 комфорт 862.5 990.6 +17.1 +22.8
15 13.10 ЮВ 2 н/о н/о +21.1 +11.0 52 +23 +23 комфорт 861.9 990.2 +21.0 +22.8
18 13.10 ЮВ 1 н/о н/о +17.4 +12.1 71 +18 +18 862.4 992.6 +17.4 +22.8
21 13.10 ЮВ 1 н/о н/о +16.6 +12.0 74 +17 +17 862.3 992.9 +16.1 +22.8
00 14.10 Ю 2 н/о н/о +16.4 +11.6 73 +17 +17 860.5 991.0 +16.1 +22.8
03 14.10 штиль 0 н/о н/о +16.5 +11.5 72 +16 +16 860.7 991.2 +16.1 +22.8
06 14.10 З 1 н/о н/о +17.4 +11.5 68 +18 +18 861.9 992.1 +16.1
09 14.10 С 2 н/о н/о +20.2 +11.2 56 +22 +22 комфорт 862.3 991.0 +16.1 +20.4
12 14.10 СВ 2 н/о н/о +23.0 +11.5 48 +25 +25 комфорт 860.4 987.6 +16.1 +23.6
15 14.10 СВ 3 н/о н/о +23.9 +11.4 45 +25 +25 комфорт 858.5 985.0 +22.4 +25.4
18 14.10 штиль 0 н/о н/о +16.8 +11.9 73 +17 +17 855.4 985.1 +16.8 +25.4
21 14.10 штиль 0 н/о н/о +14.0 +11.1 83 +14 +14 853.7 984.6 +13.9 +25.4
00 15.10 штиль 0 н/о н/о +12.2 +10.1 87 +12 +12 850.8 982.2 +12.2 +25.4
03 15.10 штиль 0 н/о н/о +11.2 +9.3 88 +11 +11 849.7 981.5 +11.0 +25.4
06 15.10 С 5 н/о н/о +22.5 +11.7 50 +25 +25 комфорт 854.5 981.4 +10.7
09 15.10 СВ 4 н/о н/о +29.4 +11.3 33 +30 +30 жарко 855.5 979.3 +10.7 +29.6
12 15.10 СВ 4 н/о н/о +35.9 +10.6 22 +35 +35 очень
жарко
854.4 975.3 +10.7 +35.9
15 15.10 С 3 н/о н/о +36.3 +8.6 18 +34 +34 очень
жарко
852.6 973.2 +35.7 +37.6
18 15.10 С 2 н/о н/о +29.1 +9.5 29 +29 +29 жарко 851.3 974.9 +29.1 +37.6
21 15.10 З 2 н/о н/о +21.5 +11.3 52 +23 +23 комфорт 848.6 975.4 +21.4 +37.6
00 16.10 Ю 1 н/о н/о +17.6 +12.1 70 +19 +19 845.8 974.1 +17.5 +37.6
03 16.10 ЮВ 1 н/о н/о +20.9 +15.0 69 +25 +25 комфорт 849.4 976.6 +16.3 +37.6
06 16.10 Ю 3 н/о н/о +24.0 +16.1 61 +27 +27 жарко 853.9 980.1 +16.3
09 16.10 Ю 3 н/о н/о +29.1 +16.2 46 +32 +32 душно 853.8 977.6 +16.3 +29.6
12 16.10 В 2 н/о н/о +33.7 +14.1 31 +35 +35 очень
жарко
852.5 974.2 +16.3 +33.7
15 16.10 В 2 н/о н/о +33.2 +15.5 35 +36 +36 очень
душно
851.4 973.3 +33.0 +34.9
18 16.10 ЮВ 1 н/о н/о +25.4 +17.2 60 +29 +29 душно 849.8 975.0 +25.4 +34.9
21 16.10 ЮВ 1 н/о н/о +20.7 +16.9 79 +25 +25 комфорт 849.3 976.6 +20.0 +34.9
00 17.10 Ю 1 н/о н/о +20.4 +17.6 84 +25 +25 комфорт 848.8 976.2 +20.0 +34.9
03 17.10 Ю 2 н/о н/о +19.9 +17.1 84 +23 +23 комфорт 849.7 977.4 +19.9 +34.9
06 17.10 Ю 3 н/о н/о +22.9 +16.5 67 +28 +28 душно 853.1 979.7 +19.7
09 17.10 В 2 н/о н/о +29.0 +12.2 35 +30 +30 жарко 853.3 977.1 +19.7 +29.2
12 17.10 ЮВ 2 н/о н/о +33.0 +10.7 26 +33 +33 жарко 852.2 974.2 +19.7 +33.1
15 17.10 ЮВ 2 н/о н/о +32.6 +12.1 29 +33 +33 жарко 851.9 974.1 +32.1 +34.1

 

Местоположение метеостанции Skukuza (Южная Африка): широта -24.98 долгота 31.60 высота над уровнем моря 271 м.

В архиве по умолчанию представлена погода в Skukuza за последнюю неделю. Архивные данные за месяц целиком и за предыдущие месяцы, начиная с января 2011 года, Вы можете получить, выбрав интересующий диапазон дат из раскрывающегося списка и нажав кнопку "Ввод!".

Внимание! Время в таблицах - всемирное. Для получения местного времени необходимо прибавить поправку, которая в Skukuza равна 2 ч.

Смотрите также архив погоды в соседних городах и на ближайших метеорологических станциях:

Погода в Komatidraai (Южная Африка) (66 км)
Погода в Graskop (Южная Африка) (76 км)
Погода в Graskop-Skool (Южная Африка) (78 км)
Погода в Hoedspruit AFB (Южная Африка) (89 км)
Погода в Nelspruit (Южная Африка) (90 км)
Погода в Vuvulane (Свазиленд) (100 км)
Погода в Lydenburg (Южная Африка) (114 км)
Погода в Lydenburg 2 (Южная Африка) (115 км)
Погода в Piggs Peak (Свазиленд) (116 км)
Погода в Maputo (Мозамбик) (142 км)

Пояснения к столбцам:

Ветер - указаны скорость ветра в м/с - средняя за 10 мин, порывы в срок и между сроками (в фигурных скобках) и направление, откуда дует ветер: С - северный, СВ - северо-восточный, В - восточный, ЮВ - юго-восточный, Ю - южный, ЮЗ - юго-западный, З - западный, СЗ - северо-западный.
Видимость - горизонтальная дальность видимости в метрах или километрах. При видимости от 1 до 10 км при отсутствии осадков обычно наблюдается дымка, при ухудшении видимости до 1 км и менее - туман. В сухую погоду видимость может ухудшаться дымом, пылью или мглою.
Явления - указаны атмосферные явления, наблюдавшиеся в срок или в последний час перед сроком; фигурными скобками обозначены явления, наблюдавшиеся между сроками (за 1-3 часа до срока); квадратными скобками обозначены град или гололедные отложения с указанием их диаметра в мм.
Облачность - указаны через наклонную черту общая и нижняя облачность в баллах и высота нижней границы облаков в метрах; квадратными скобками обозначены формы облаков: Ci - перистые, Cs - перисто-слоистые, Cc - перисто-кучевые, Ac - высококучевые, As - высокослоистые, Sc - слоисто-кучевые, Ns - слоисто-дождевые, Cu - кучевые, Cb - кучево-дождевые. Подробнее классификацию облаков см. в Атласе облаков (PDF).
T - Температура воздуха - температура, измеренная на высоте 2 м над землей.
Td - Температура точки росы - температура, при понижении до которой содержащийся в воздухе водяной пар достигнет насыщения.
f - Относительная влажность воздуха - влажноcть воздуха, измеренная на высоте 2 м над землей.
Te - Эффективная температура - температура, которую ощущает одетый по сезону человек в тени. Характеристика душности погоды. При расчете учитывается влияние влажности воздуха и скорости ветра на теплоощущения человека.
Tes - Эффективная температура на солнце - температура, которую ощущает человек, с поправкой на солнечный нагрев. Характеристика знойности погоды. Зависит от высоты солнца над горизонтом, облачности и скорости ветра. Ночью, в пасмурную погоду, а также при ветре 12 м/с и более поправка равна нулю.
P - Атмосферное давление - приведенное к уровню моря атмосферное давление.
Po - Атмосферное давление - измеренное на уровне метеостанции атмосферное давление.
Tmin - Минимальная температура - минимум температуры воздуха на высоте 2 м над землей.
Tmax - Максимальная температура - максимум температуры воздуха на высоте 2 м над землей.
R - Количество осадков - Количество выпавших осадков за период времени, мм. При наведении курсора мыши на число - период времени, за который выпало указанное количество осадков.
R24 - Количество осадков - Количество выпавших осадков за 24 часа, мм.
S - Снежный покров - Высота снежного покрова, см. При наведении курсора мыши на число - состояние снежного покрова и степень покрытия местности в баллах.